• In Czech Republic
  • List of Countries
  • For 7 days
  • Water Temperature
  • Satellite Maps
  • Weather Map
  • Weather Widgets
  • user-avatar
    Login

    Hourly Weather Krasnyy Yar

    Today, 15 July, Sunday

    Time Temperature Precipitation Wind Pressure Humidity
    00:00 +20°C° 0.1 mm 1 mps 751 mmHg 91%
    01:00 +20°C° 0 mm 1 mps 751 mmHg 91%
    02:00 +19°C° 0 mm 1 mps 751 mmHg 92%
    03:00 +19°C° 0 mm 1 mps 751 mmHg 92%
    04:00 +20°C° 0 mm 1 mps 751 mmHg 90%
    05:00 +21°C° 0 mm 1 mps 752 mmHg 88%
    06:00 +22°C° 0 mm 1 mps 752 mmHg 87%
    07:00 +24°C° 0.1 mm 1 mps 752 mmHg 81%
    08:00 +25°C° 0.1 mm 1 mps 752 mmHg 75%
    09:00 +27°C° 0 mm 2 mps 752 mmHg 69%
    10:00 +27°C° 0.2 mm 2 mps 752 mmHg 65%
    11:00 +28°C° 0.2 mm 2 mps 752 mmHg 62%
    12:00 +29°C° 0.2 mm 2 mps 751 mmHg 59%
    13:00 +29°C° 0.5 mm 2 mps 751 mmHg 60%
    14:00 +29°C° 0.5 mm 2 mps 751 mmHg 62%
    15:00 +30°C° 0 mm 2 mps 751 mmHg 60%
    16:00 +29°C° 1.1 mm 2 mps 751 mmHg 67%
    17:00 +28°C° 1.1 mm 2 mps 751 mmHg 73%
    18:00 +27°C° 1.1 mm 2 mps 751 mmHg 80%
    19:00 +26°C° 0.2 mm 2 mps 751 mmHg 84%
    20:00 +24°C° 0.2 mm 2 mps 751 mmHg 88%
    21:00 +21°C° 0.2 mm 2 mps 751 mmHg 92%
    22:00 +21°C° 0 mm 2 mps 751 mmHg 93%
    23:00 +20°C° 0 mm 2 mps 752 mmHg 94%

    Tomorrow, 16 July, Monday

    Time Temperature Precipitation Wind Pressure Humidity
    00:00 +21°C° 0 mm 1 mps 752 mmHg 94%
    01:00 +20°C° 0 mm 2 mps 752 mmHg 95%
    02:00 +19°C° 0 mm 2 mps 751 mmHg 95%
    03:00 +19°C° 0 mm 2 mps 751 mmHg 95%
    04:00 +20°C° 0 mm 2 mps 752 mmHg 94%
    05:00 +20°C° 0 mm 2 mps 752 mmHg 93%
    06:00 +21°C° 0 mm 2 mps 752 mmHg 91%
    07:00 +24°C° 0 mm 2 mps 752 mmHg 85%
    08:00 +25°C° 0 mm 2 mps 752 mmHg 79%
    09:00 +27°C° 0 mm 2 mps 752 mmHg 73%
    10:00 +28°C° 0.1 mm 2 mps 751 mmHg 69%
    11:00 +29°C° 0.1 mm 2 mps 751 mmHg 65%
    12:00 +30°C° 0.1 mm 2 mps 751 mmHg 61%
    13:00 +29°C° 0.8 mm 3 mps 751 mmHg 64%
    14:00 +29°C° 0.8 mm 3 mps 751 mmHg 67%
    15:00 +29°C° 0.8 mm 3 mps 751 mmHg 71%
    16:00 +28°C° 0.8 mm 3 mps 751 mmHg 74%
    17:00 +28°C° 0.8 mm 3 mps 751 mmHg 78%
    18:00 +27°C° 0.8 mm 2 mps 751 mmHg 81%
    19:00 +26°C° 0.1 mm 2 mps 751 mmHg 85%
    20:00 +25°C° 0.1 mm 2 mps 751 mmHg 89%
    21:00 +23°C° 0.1 mm 2 mps 751 mmHg 93%
    22:00 +23°C° 0 mm 2 mps 751 mmHg 94%
    23:00 +21°C° 0 mm 2 mps 751 mmHg 95%

    Day after tomorrow, 17 July, Tuesday

    Time Temperature Precipitation Wind Pressure Humidity
    00:00 +21°C° 0 mm 2 mps 751 mmHg 96%
    01:00 +20°C° 0 mm 2 mps 751 mmHg 96%
    02:00 +20°C° 0 mm 2 mps 751 mmHg 97%
    03:00 +20°C° 0 mm 3 mps 751 mmHg 97%
    04:00 +20°C° 0 mm 3 mps 751 mmHg 94%
    05:00 +21°C° 0 mm 3 mps 751 mmHg 92%
    06:00 +21°C° 0 mm 3 mps 751 mmHg 89%
    07:00 +23°C° 0 mm 4 mps 751 mmHg 83%
    08:00 +25°C° 0 mm 4 mps 750 mmHg 76%
    09:00 +27°C° 0 mm 4 mps 750 mmHg 70%
    10:00 +28°C° 0 mm 5 mps 750 mmHg 66%
    11:00 +28°C° 0 mm 5 mps 750 mmHg 62%
    12:00 +29°C° 0 mm 6 mps 750 mmHg 59%
    13:00 +29°C° 0.1 mm 6 mps 750 mmHg 60%
    14:00 +29°C° 0.1 mm 5 mps 750 mmHg 61%
    15:00 +29°C° 0.1 mm 5 mps 750 mmHg 62%
    16:00 +28°C° 0 mm 5 mps 749 mmHg 67%
    17:00 +27°C° 0 mm 4 mps 749 mmHg 71%
    18:00 +26°C° 0 mm 4 mps 749 mmHg 76%
    19:00 +25°C° 0.1 mm 4 mps 749 mmHg 79%
    20:00 +22°C° 0.1 mm 4 mps 749 mmHg 82%
    21:00 +21°C° 0.1 mm 4 mps 748 mmHg 86%
    22:00 +21°C° 0.3 mm 4 mps 748 mmHg 87%
    23:00 +21°C° 0.3 mm 5 mps 748 mmHg 88%

    18 July, Wednesday

    Time Temperature Precipitation Wind Pressure Humidity
    00:00 +20°C° 0.3 mm 5 mps 747 mmHg 90%
    01:00 +20°C° 0.2 mm 5 mps 747 mmHg 91%
    02:00 +20°C° 0.2 mm 5 mps 747 mmHg 93%
    03:00 +20°C° 0.2 mm 5 mps 746 mmHg 95%
    04:00 +20°C° 0.2 mm 5 mps 746 mmHg 95%
    05:00 +20°C° 0.2 mm 5 mps 746 mmHg 95%
    06:00 +21°C° 0.2 mm 5 mps 746 mmHg 95%
    07:00 +21°C° 0.4 mm 5 mps 746 mmHg 95%
    08:00 +21°C° 0.4 mm 4 mps 747 mmHg 95%
    09:00 +21°C° 0.4 mm 4 mps 747 mmHg 94%
    10:00 +21°C° 0.2 mm 3 mps 747 mmHg 94%
    11:00 +22°C° 0.2 mm 3 mps 747 mmHg 94%
    12:00 +22°C° 0.2 mm 3 mps 747 mmHg 94%
    13:00 +22°C° 1.4 mm 3 mps 747 mmHg 91%
    14:00 +24°C° 1.4 mm 3 mps 748 mmHg 88%
    15:00 +25°C° 1.4 mm 3 mps 748 mmHg 85%
    16:00 +25°C° 0.6 mm 3 mps 748 mmHg 86%
    17:00 +25°C° 0.6 mm 2 mps 748 mmHg 86%
    18:00 +25°C° 0.6 mm 2 mps 748 mmHg 87%
    19:00 +24°C° 0.2 mm 2 mps 749 mmHg 88%
    20:00 +23°C° 0.2 mm 2 mps 749 mmHg 90%
    21:00 +21°C° 0.2 mm 2 mps 749 mmHg 92%
    22:00 +21°C° 0 mm 2 mps 749 mmHg 93%
    23:00 +20°C° 0 mm 2 mps 749 mmHg 93%

    19 July, Thursday

    Time Temperature Precipitation Wind Pressure Humidity
    00:00 +20°C° 0 mm 2 mps 750 mmHg 93%
    01:00 +19°C° 0 mm 2 mps 750 mmHg 94%
    02:00 +19°C° 0 mm 2 mps 750 mmHg 94%
    03:00 +19°C° 0 mm 2 mps 751 mmHg 94%
    04:00 +20°C° 0 mm 2 mps 751 mmHg 92%
    05:00 +20°C° 0 mm 2 mps 751 mmHg 91%
    06:00 +21°C° 0 mm 2 mps 751 mmHg 89%
    07:00 +24°C° 0 mm 2 mps 752 mmHg 83%
    08:00 +25°C° 0 mm 2 mps 752 mmHg 77%
    09:00 +27°C° 0 mm 2 mps 752 mmHg 71%
    10:00 +28°C° 0.5 mm 2 mps 752 mmHg 68%
    11:00 +29°C° 0.5 mm 2 mps 752 mmHg 65%
    12:00 +29°C° 0.5 mm 3 mps 752 mmHg 62%
    13:00 +29°C° 0.3 mm 2 mps 752 mmHg 61%
    14:00 +30°C° 0.3 mm 2 mps 752 mmHg 61%
    15:00 +30°C° 0.3 mm 2 mps 752 mmHg 60%
    16:00 +29°C° 0.4 mm 2 mps 752 mmHg 65%
    17:00 +28°C° 0.4 mm 2 mps 752 mmHg 70%
    18:00 +28°C° 0.4 mm 2 mps 752 mmHg 76%
    19:00 +26°C° 0.2 mm 2 mps 752 mmHg 79%
    20:00 +25°C° 0.2 mm 2 mps 752 mmHg 82%
    21:00 +23°C° 0.2 mm 2 mps 752 mmHg 86%
    22:00 +23°C° 0 mm 1 mps 752 mmHg 87%
    23:00 +22°C° 0 mm 1 mps 752 mmHg 89%

    20 July, Friday

    Time Temperature Precipitation Wind Pressure Humidity
    00:00 +21°C° 0 mm 1 mps 752 mmHg 90%
    01:00 +21°C° 0.2 mm 1 mps 752 mmHg 91%
    02:00 +21°C° 0.2 mm 1 mps 752 mmHg 92%
    03:00 +20°C° 0.2 mm 1 mps 752 mmHg 92%
    04:00 +21°C° 0 mm 1 mps 752 mmHg 91%
    05:00 +22°C° 0 mm 1 mps 752 mmHg 90%
    06:00 +23°C° 0 mm 1 mps 753 mmHg 88%
    07:00 +24°C° 0 mm 1 mps 753 mmHg 82%
    08:00 +26°C° 0 mm 2 mps 752 mmHg 76%
    09:00 +27°C° 0 mm 2 mps 752 mmHg 69%
    10:00 +28°C° 0.6 mm 2 mps 752 mmHg 66%
    11:00 +29°C° 0.6 mm 2 mps 752 mmHg 62%
    12:00 +30°C° 0.6 mm 2 mps 752 mmHg 59%
    13:00 +30°C° 0.1 mm 2 mps 752 mmHg 57%
    14:00 +31°C° 0.1 mm 2 mps 752 mmHg 55%
    15:00 +31°C° 0.1 mm 2 mps 752 mmHg 53%
    16:00 +31°C° 0 mm 1 mps 752 mmHg 56%
    17:00 +30°C° 0 mm 1 mps 752 mmHg 60%
    18:00 +30°C° 0 mm 1 mps 752 mmHg 64%
    19:00 +28°C° 0.1 mm 1 mps 752 mmHg 70%
    20:00 +26°C° 0.1 mm 2 mps 752 mmHg 75%
    21:00 +24°C° 0.1 mm 2 mps 752 mmHg 81%
    22:00 +23°C° 0.6 mm 1 mps 752 mmHg 84%
    23:00 +23°C° 0.6 mm 1 mps 752 mmHg 86%
    Show more